Location: The Saddle
(36.8333°N, 80.3417°W)
Time: 04:52:44
(UTC-05:00)

Courier 1B - All Passes

Search period start: 19 January 2022 00:00
Search period end: 29 January 2022 00:00
Orbit: 962 x 1209 km, 28.3° (Epoch: 19 January)

Date Brightness Start Highest point End Pass type
(mag) Time Alt. Az. Time Alt. Az. Time Alt. Az.
19 Jan - 01:07:13 10° WSW 01:14:05 41° S 01:20:34 10° ESE night (unlit)
19 Jan - 03:01:59 10° WSW 03:07:31 24° SSW 03:12:48 10° SSE night (unlit)
19 Jan - 20:27:20 10° SSW 20:32:58 22° SSE 20:38:31 10° ESE visible
19 Jan - 22:19:30 10° SW 22:26:33 39° S 22:33:21 10° ESE visible
20 Jan - 00:13:14 10° WSW 00:20:20 43° S 00:27:02 10° ESE night (unlit)
20 Jan - 02:07:44 10° WSW 02:13:53 30° SSW 02:19:45 10° SE night (unlit)
20 Jan - 04:04:49 10° SW 04:07:01 12° SSW 04:09:10 10° SSW visible
20 Jan - 19:34:31 10° S 19:39:15 17° SSE 19:43:57 10° ESE visible
20 Jan - 21:25:50 10° SW 21:32:45 35° SSE 21:39:28 10° ESE visible
20 Jan - 23:19:16 10° WSW 23:26:31 44° S 23:33:26 10° ESE night (unlit)
21 Jan - 01:13:34 10° WSW 01:20:12 35° SSW 01:26:30 10° SE night (unlit)
21 Jan - 03:09:18 10° WSW 03:13:28 16° SSW 03:17:31 10° S night (unlit)
21 Jan - 18:42:22 10° S 18:45:33 13° SSE 18:48:43 10° SE visible
21 Jan - 20:32:19 10° SW 20:38:57 30° SSE 20:45:29 10° ESE visible
21 Jan - 22:25:23 10° WSW 22:32:42 44° S 22:39:44 10° ESE visible
22 Jan - 00:19:29 10° WSW 00:26:28 39° S 00:33:07 10° SE night (unlit)
22 Jan - 02:14:35 10° WSW 02:19:53 21° SSW 02:24:59 10° SSE night (unlit)
22 Jan - 19:39:00 10° SSW 19:45:11 26° SSE 19:51:20 10° ESE visible
22 Jan - 21:31:35 10° WSW 21:38:50 42° S 21:45:56 10° ESE visible
22 Jan - 23:25:27 10° WSW 23:32:41 43° S 23:39:36 10° ESE night (unlit)
23 Jan - 01:20:10 10° WSW 01:26:14 27° SSW 01:32:03 10° SSE night (unlit)
23 Jan - 18:45:58 10° SSW 18:51:26 21° SSE 18:56:56 10° ESE visible
23 Jan - 20:37:52 10° SW 20:45:00 39° SSE 20:52:03 10° ESE visible
23 Jan - 22:31:29 10° WSW 22:38:51 45° S 22:45:57 10° ESE visible
24 Jan - 00:25:55 10° WSW 00:32:33 32° SSW 00:38:53 10° SE night (unlit)
24 Jan - 02:22:23 10° WSW 02:25:47 14° SSW 02:29:06 10° S night (unlit)
24 Jan - 17:53:21 10° S 17:57:44 16° SSE 18:02:09 10° ESE visible
24 Jan - 19:44:18 10° SW 19:51:10 34° SSE 19:58:04 10° ESE visible
24 Jan - 21:37:35 10° WSW 21:44:59 45° S 21:52:13 10° ESE visible
24 Jan - 23:31:47 10° WSW 23:38:47 37° SSW 23:45:31 10° SE night (unlit)
25 Jan - 01:27:16 10° WSW 01:32:11 19° SSW 01:36:56 10° SSE night (unlit)
25 Jan - 17:01:43 10° SSE 17:04:04 12° SSE 17:06:27 10° SE daylight
25 Jan - 18:50:55 10° SW 18:57:23 29° SSE 19:03:57 10° ESE visible
25 Jan - 20:43:46 10° WSW 20:51:07 44° S 20:58:24 10° ESE visible
25 Jan - 22:37:44 10° WSW 22:44:58 41° S 22:52:00 10° ESE visible
26 Jan - 00:32:40 10° WSW 00:38:31 24° SSW 00:44:11 10° SSE night (unlit)
26 Jan - 17:57:45 10° SSW 18:03:38 24° SSE 18:09:38 10° ESE visible
26 Jan - 19:50:03 10° WSW 19:57:14 41° S 20:04:29 10° ESE visible
26 Jan - 21:43:46 10° WSW 21:51:07 44° S 21:58:22 10° ESE visible
26 Jan - 23:38:19 10° WSW 23:44:49 29° SSW 23:51:06 10° SE night (unlit)
27 Jan - 01:36:10 10° SW 01:38:03 11° SSW 01:39:54 10° SSW night (unlit)
27 Jan - 17:04:54 10° SSW 17:09:56 19° SSE 17:15:05 10° ESE daylight
27 Jan - 18:56:28 10° SW 19:03:24 38° SSE 19:10:30 10° ESE visible
27 Jan - 20:49:52 10° WSW 20:57:15 46° S 21:04:36 10° ESE visible
27 Jan - 22:44:09 10° WSW 22:51:02 34° SSW 22:57:47 10° SE visible
28 Jan - 00:40:11 10° WSW 00:44:25 16° SSW 00:48:35 10° S night (unlit)
28 Jan - 16:12:34 10° S 16:16:17 14° SSE 16:20:04 10° ESE daylight
28 Jan - 18:03:01 10° SW 18:09:36 33° SSE 18:16:23 10° ESE visible
28 Jan - 19:56:04 10° WSW 20:03:22 45° S 20:10:46 10° ESE visible
28 Jan - 21:50:06 10° WSW 21:57:13 39° SSW 22:04:17 10° SE visible
28 Jan - 23:45:19 10° WSW 23:50:45 21° SSW 23:56:05 10° SSE night (unlit)
